Location: Maccacari
(45.1333°N, 11.1333°E)
Time: 15:47:59
(UTC+00:00)

SR - Pass Details

Date: 26 June 2021
Orbit: 577 x 878 km, 66.7° (Epoch: 24 July)

Event Time Altitude Azimuth Distance (km) Brightness Sun altitude
Rises 00:25:14 0° 313° (NW) 3,219 ? -19.8°
Reaches altitude 10° 00:28:30 10° 293° (WNW) 2,223 ? -19.7°
Enters shadow 00:31:16 16° 260° (W) 1,776 ? -19.5°
